Westminster, MD

2:53 AM EDT on September 25, 2016 (GMT -0400)
Carroll County Regional-Poage

Weather History for KDMW - September, 2013

Change the Weather History Date:

Monday, September 2, 2013

  Actual Average (KTHV) Record (KTHV)
Temperature  
Mean Temperature 78 °F -  
Max Temperature 87 °F 0 °F 95 °F (2010)
Min Temperature 69 °F - 45 °F (2001)
Cooling Degree Days 13    
Growing Degree Days 28 (Base 50)    
Moisture  
Dew Point 70 °F    
Average Humidity 76    
Maximum Humidity 100    
Minimum Humidity 49    
Precipitation  
Precipitation 0.00 in - - ()
Sea Level Pressure  
Sea Level Pressure 29.81 in    
Wind  
Wind Speed 0 mph (WSW)    
Max Wind Speed 12 mph    
Max Gust Speed -    
Visibility 9 miles    
Events      
Averages and records for this station are not official NWS values.
T = Trace of Precipitation, MM = Missing Value Source: NWS Daily Summary

Daily Weather History Graph

Daily Weather History Graph

Search for Another Location

Airport or City:

Trip Planner

Search our weather history database for the weather conditions in past years. The results will help you decide how hot, cold, wet, or windy it might be!

Date:

Astronomy

Sep. 02, 2013 Rise Set
Actual Time 6:37 AM EDT 7:37 PM EDT
Civil Twilight 6:09 AM EDT 8:04 PM EDT
Nautical Twilight 5:36 AM EDT 8:37 PM EDT
Astronomical Twilight 5:02 AM EDT 9:11 PM EDT
Moon 3:52 AM EDT (9/2) 5:49 PM EDT (9/2)
Length of Visible Light 13h 54m
Length of Day
12h 59m
Waning Crescent, 8% of the Moon is Illuminated
Sep 2
Waning Crescent
Sep 5
New
Sep 12
First Quarter
Sep 19
Full
Sep 26
Last Quarter

Hourly Weather History & Observations

Time (EDT) Temp. Heat Index Dew Point Humidity Pressure Visibility Wind Dir Wind Speed Gust Speed Precip Events Conditions
12:00 AM 73.4 °F - 71.6 °F 94% 29.83 in 7.0 mi Calm Calm - N/A   Clear
12:20 AM 73.4 °F - 71.6 °F 94% 29.82 in 7.0 mi Calm Calm - N/A   Clear
12:40 AM 73.4 °F - 71.6 °F 94% 29.82 in 7.0 mi Calm Calm - N/A   Clear
1:00 AM 73.4 °F - 71.6 °F 94% 29.82 in 7.0 mi Calm Calm - N/A   Clear
1:20 AM 73.4 °F - 71.6 °F 94% 29.83 in 7.0 mi Calm Calm - N/A   Clear
1:40 AM 73.4 °F - 71.6 °F 94% 29.82 in 7.0 mi Calm Calm - N/A   Scattered Clouds
2:00 AM 73.4 °F - 71.6 °F 94% 29.82 in 7.0 mi Calm Calm - N/A   Mostly Cloudy
2:15 AM 73.4 °F - 71.6 °F 94% 29.82 in 7.0 mi Calm Calm - N/A   Mostly Cloudy
2:40 AM 73.4 °F - 69.8 °F 88% 29.82 in 4.0 mi Calm Calm - N/A   Scattered Clouds
3:00 AM 71.6 °F - 69.8 °F 94% 29.82 in 7.0 mi Calm Calm - N/A   Clear
3:20 AM 71.6 °F - 69.8 °F 94% 29.83 in 7.0 mi Calm Calm - N/A   Scattered Clouds
3:40 AM 71.6 °F - 69.8 °F 94% 29.82 in 7.0 mi Calm Calm - N/A   Scattered Clouds
4:00 AM 73.4 °F - 69.8 °F 88% 29.81 in 10.0 mi Calm Calm - N/A   Clear
4:20 AM 71.6 °F - 69.8 °F 94% 29.80 in 10.0 mi Calm Calm - N/A   Clear
4:40 AM 71.6 °F - 71.6 °F 100% 29.80 in 10.0 mi Calm Calm - N/A   Scattered Clouds
5:00 AM 71.6 °F - 69.8 °F 94% 29.80 in 7.0 mi Calm Calm - N/A   Clear
5:20 AM 71.6 °F - 69.8 °F 94% 29.80 in 10.0 mi Calm Calm - N/A   Scattered Clouds
5:40 AM 71.6 °F - 69.8 °F 94% 29.80 in 10.0 mi Calm Calm - N/A   Scattered Clouds
6:00 AM 71.6 °F - 68.0 °F 88% 29.80 in 10.0 mi Calm Calm - N/A   Clear
6:20 AM 71.6 °F - 69.8 °F 94% 29.81 in 10.0 mi Calm Calm - N/A   Clear
6:40 AM 71.6 °F - 69.8 °F 94% 29.82 in 10.0 mi Calm Calm - N/A   Clear
7:00 AM 71.6 °F - 69.8 °F 94% 29.82 in 7.0 mi Calm Calm - N/A   Clear
7:20 AM 69.8 °F - 68.0 °F 94% 29.82 in 5.0 mi Calm Calm - N/A   Clear
7:40 AM 71.6 °F - 69.8 °F 94% 29.82 in 7.0 mi Calm Calm - N/A   Clear
8:00 AM 71.6 °F - 68.0 °F 88% 29.82 in 7.0 mi Calm Calm - N/A   Clear
8:20 AM 73.4 °F - 69.8 °F 88% 29.83 in 10.0 mi Calm Calm - N/A   Clear
8:40 AM 73.4 °F - 69.8 °F 88% 29.83 in 10.0 mi Calm Calm - N/A   Clear
9:00 AM 75.2 °F - 69.8 °F 83% 29.83 in 10.0 mi Calm Calm - N/A   Scattered Clouds
9:15 AM 75.2 °F - 69.8 °F 83% 29.83 in 10.0 mi Calm Calm - N/A   Scattered Clouds
9:40 AM 77.0 °F - 69.8 °F 78% 29.83 in 10.0 mi Calm Calm - N/A   Clear
10:00 AM 78.8 °F - 69.8 °F 74% 29.84 in 10.0 mi Calm Calm - N/A   Scattered Clouds
10:20 AM 78.8 °F - 69.8 °F 74% 29.84 in 10.0 mi Calm Calm - N/A   Mostly Cloudy
10:40 AM 78.8 °F - 69.8 °F 74% 29.84 in 10.0 mi Calm Calm - N/A   Scattered Clouds
11:00 AM 80.6 °F 84.6 °F 71.6 °F 74% 29.84 in 10.0 mi Calm Calm - N/A   Scattered Clouds
11:20 AM 80.6 °F 84.6 °F 71.6 °F 74% 29.84 in 10.0 mi Calm Calm - N/A   Scattered Clouds
11:40 AM 80.6 °F 84.6 °F 71.6 °F 74% 29.84 in 10.0 mi Calm Calm - N/A   Scattered Clouds
12:00 PM 82.4 °F 87.2 °F 71.6 °F 70% 29.84 in 10.0 mi Calm Calm - N/A   Scattered Clouds
12:20 PM 82.4 °F 89.5 °F 75.2 °F 79% 29.83 in 10.0 mi Calm Calm - N/A   Clear
12:40 PM 82.4 °F 86.3 °F 69.8 °F 66% 29.83 in 10.0 mi Calm Calm - N/A   Clear
1:00 PM 84.2 °F 88.4 °F 69.8 °F 62% 29.82 in 10.0 mi Calm Calm - N/A   Scattered Clouds
1:20 PM 84.2 °F 86.6 °F 66.2 °F 55% 29.82 in 10.0 mi Calm Calm - N/A   Scattered Clouds
1:40 PM 84.2 °F 88.4 °F 69.8 °F 62% 29.81 in 10.0 mi Calm Calm - N/A   Scattered Clouds
2:00 PM 84.2 °F 86.6 °F 66.2 °F 55% 29.81 in 10.0 mi Calm Calm - N/A   Scattered Clouds
2:20 PM 86.0 °F 90.4 °F 69.8 °F 58% 29.81 in 10.0 mi West 9.2 mph - N/A   Scattered Clouds
2:40 PM 86.0 °F 91.8 °F 71.6 °F 62% 29.80 in 10.0 mi Calm Calm - N/A   Scattered Clouds
3:00 PM 87.8 °F 93.8 °F 71.6 °F 58% 29.79 in 10.0 mi Calm Calm - N/A   Clear
3:20 PM 86.0 °F 90.4 °F 69.8 °F 58% 29.78 in 10.0 mi Calm Calm - N/A   Scattered Clouds
3:40 PM 87.8 °F 92.6 °F 69.8 °F 55% 29.78 in 10.0 mi West 6.9 mph - N/A   Scattered Clouds
4:05 PM 87.8 °F 91.4 °F 68.0 °F 52% 29.78 in 10.0 mi WSW 11.5 mph - N/A   Scattered Clouds
4:25 PM 87.8 °F 91.4 °F 68.0 °F 52% 29.77 in 10.0 mi WSW 8.1 mph - N/A   Scattered Clouds
4:40 PM 87.8 °F 90.4 °F 66.2 °F 49% 29.77 in 10.0 mi West 9.2 mph - N/A   Clear
5:05 PM 87.8 °F 91.4 °F 68.0 °F 52% 29.76 in 10.0 mi Calm Calm - N/A   Clear
5:25 PM 87.8 °F 91.4 °F 68.0 °F 52% 29.76 in 10.0 mi Calm Calm - N/A   Scattered Clouds
5:45 PM 87.8 °F 92.6 °F 69.8 °F 55% 29.76 in 10.0 mi Calm Calm - N/A   Clear
6:05 PM 87.8 °F 91.4 °F 68.0 °F 52% 29.76 in 10.0 mi SW 5.8 mph - N/A   Clear
6:25 PM 87.8 °F 91.4 °F 68.0 °F 52% 29.77 in 10.0 mi Calm Calm - N/A   Clear
6:45 PM 86.0 °F 91.8 °F 71.6 °F 62% 29.77 in 10.0 mi Calm Calm - N/A   Clear
7:05 PM 86.0 °F 91.8 °F 71.6 °F 62% 29.77 in 10.0 mi Calm Calm - N/A   Clear
7:25 PM 84.2 °F 88.4 °F 69.8 °F 62% 29.77 in 10.0 mi Calm Calm - N/A   Clear
7:45 PM 82.4 °F 86.3 °F 69.8 °F 66% 29.77 in 10.0 mi Calm Calm - N/A   Clear
8:05 PM 82.4 °F 86.3 °F 69.8 °F 66% 29.78 in 10.0 mi Calm Calm - N/A   Clear
8:25 PM 80.6 °F 83.9 °F 69.8 °F 70% 29.77 in 10.0 mi Calm Calm - N/A   Clear
8:40 PM 80.6 °F 83.9 °F 69.8 °F 70% 29.78 in 10.0 mi Calm Calm - N/A   Clear
9:05 PM 80.6 °F 83.9 °F 69.8 °F 70% 29.78 in 10.0 mi Calm Calm - N/A   Clear
9:25 PM 78.8 °F - 71.6 °F 78% 29.78 in 10.0 mi Calm Calm - N/A   Clear
9:45 PM 80.6 °F 83.9 °F 69.8 °F 70% 29.79 in 10.0 mi Calm Calm - N/A   Clear
10:05 PM 78.8 °F - 71.6 °F 78% 29.80 in 10.0 mi Calm Calm - N/A   Clear
10:25 PM 78.8 °F - 69.8 °F 74% 29.79 in 10.0 mi Calm Calm - N/A   Scattered Clouds
10:45 PM 78.8 °F - 69.8 °F 74% 29.80 in 10.0 mi Calm Calm - N/A   Scattered Clouds
11:05 PM 78.8 °F - 69.8 °F 74% 29.80 in 10.0 mi WSW 3.5 mph - N/A   Scattered Clouds
11:25 PM 77.0 °F - 69.8 °F 78% 29.80 in 10.0 mi Calm Calm - N/A   Scattered Clouds
11:45 PM 77.0 °F - 69.8 °F 78% 29.80 in 10.0 mi Calm Calm - N/A   Clear